Regional Weather Roundup
Issued by NWS

Home | Current Version | Previous Version | Graphics & Text | Print | Product List | Glossary On
Versions: 1 2 3 4 5 6 7 8 9 10 11 12 13 14 15 16 17 18 19 20 21 22 23 24 25 26 27 28 29 30 31 32 33 34 35 36 37 38 39 40 41 42 43 44 45 46 47 48 49 50
664
ASUS43 KDMX 112006
RWRIA

WEATHER ROUNDUP FOR IOWA
NATIONAL WEATHER SERVICE DES MOINES IA
200 PM CST MON DEC 11 2017

NOTE: "FAIR" INDICATES FEW OR NO CLOUDS BELOW 12,000 FEET WITH NO
SIGNIFICANT WEATHER AND/OR OBSTRUCTIONS TO VISIBILITY.

* - THESE STATIONS ARE NOT NWS STATIONS...THUS NOT UNDER NWS
QUALITY CONTROL.  THEY ALSO DO NOT REPORT WEATHER SUCH
AS PRECIPITATION OR FOG.

IAZ001>003-012>014-020>022-031>034-043>046-112100-
   NORTHWEST IOWA

CITY           SKY/WX    TMP DP  RH WIND       PRES   REMARKS
CARROLL *      CLOUDY    41  32  70 N30G40    29.93R
CHEROKEE *     CLOUDY    38  31  78 NW22G33   29.98R WCI  27
DENISON *      CLOUDY    41  32  70 NW24G30   29.97R
LE MARS *      CLOUDY    39  30  70 N21G32    30.02R WCI  29
ORANGE CITY *  CLOUDY    37  32  81 N20G36    30.01R WCI  27
SHELDON *      CLOUDY    36  28  75 N32G46    29.98R WCI  22
SIOUX CITY     CLOUDY    41  32  70 N36G44    30.01R
SPENCER        CLOUDY    33  28  81 N33G46    29.97R WCI  18
STORM LAKE *   CLOUDY    37  30  75 NW28G36   29.94R WCI  25
$$

IAZ055>058-069>071-079>083-090>094-112100-
   SOUTHWEST IOWA

CITY           SKY/WX    TMP DP  RH WIND       PRES   REMARKS
ATLANTIC *     CLOUDY    45  34  65 NW28G36   29.95R
AUDUBON *      CLOUDY    43  34  70 NW21G33   29.94R
CLARINDA *     CLOUDY    48  32  53 NW22G37     N/A
COUNCIL BLFS * CLOUDY    45  34  65 NW20G31   29.99R
CRESTON *      CLOUDY    43  34  70 NW33G44   29.92R
HARLAN  *      CLOUDY    43  32  65 NW32G40   29.99R
LAMONI         CLOUDY    45  32  60 NW21G38   29.90R
RED OAK *      CLOUDY    46  32  57 NW24G41   29.98R
SHENANDOAH *   CLOUDY    48  32  53 NW21G31   30.00R
$$

IAZ047>049-059>061-072>074-084-112100-
   CENTRAL IOWA

CITY           SKY/WX    TMP DP  RH WIND       PRES   REMARKS
AMES           CLOUDY    41  34  76 NW29G44   29.86R
ANKENY *       CLOUDY    43  34  70 NW25G37   29.86R
BOONE *        CLOUDY    39  34  81 NW22G33   29.86R WCI  29
CHARITON *     MIX PCPN  43  32  65 NW29G35   29.85R
DES MOINES     CLOUDY    43  32  65 NW22G41   29.86R
GRINNELL*      DRIZZLE   39  34  81 NW21G29   29.81R WCI  29
KNOXVILLE *    CLOUDY    43  32  65 NW24G32   29.82R
MARSHALLTOWN   CLOUDY    40  36  86 NW22G31   29.80R WCI  30
NEWTON *       CLOUDY    41  34  75 NW25G37   29.82R
PELLA *        PTSUNNY   43  33  67 NW25G35   29.83R
PERRY *        DRIZZLE   40  32  72 NW22G31   29.90R WCI  30
$$

IAZ004>006-015-016-023>025-035-036-112100-
   NORTH CENTRAL IOWA

CITY           SKY/WX    TMP DP  RH WIND       PRES   REMARKS
ALGONA *       PTSUNNY   36  36 100 N24G37    29.89R WCI  24
CLARION *      CLOUDY    37  36  93 NW28G37   29.86R WCI  25
ESTHERVILLE    CLOUDY    32  30  92 N31G40    29.93R WCI  17
FORT DODGE *   MIX PCPN  37  33  85 N17G29    29.90R WCI  27
MASON CITY     CLOUDY    35  32  88 NW25G35   29.84R FOG     WCI  23
FOREST CITY *  CLOUDY    36  34  93 NW17G25   29.85R WCI  25
WEBSTER CITY * CLOUDY    39  32  75 NW33G47   29.85R WCI  27
IOWA FALLS *   CLOUDY    41  35  79 NW22G33   29.82R
$$

IAZ007>011-017>019-026>030-037>042-050>054-066-112100-
   NORTHEAST IOWA

CITY           SKY/WX    TMP DP  RH WIND       PRES   REMARKS
CEDAR RAPIDS   CLOUDY    39  31  72 NW24G32   29.74R WCI  28
CHARLES CITY * CLOUDY    36  36 100 NW23G35   29.79R WCI  24
CLINTON *      MOSUNNY   39  27  62 N16       29.70R WCI  30
DECORAH *      CLOUDY    34  34 100 NW6       29.74R WCI  29
DUBUQUE        FRZ RAIN  31  30  96 N12       29.69R FOG     WCI  22
MONTICELLO *   MIX PCPN  36  30  80 NW17      29.73R WCI  25
OELWEIN *      LGT SNOW  34  34 100 NW16      29.76R WCI  23
WATERLOO       CLOUDY    36  33  89 NW15      29.78R WCI  27
$$

IAZ064-065-067-068-078-112100-
   EAST CENTRAL IOWA

CITY           SKY/WX    TMP DP  RH WIND       PRES   REMARKS
DAVENPORT      CLOUDY    42  26  53 NW17      29.71R
IOWA CITY      CLOUDY    43  28  55 NW24G32   29.76R
MT. PLEASANT * CLOUDY    44  29  56 NW24G33   29.75R
MUSCATINE *    PTSUNNY   45  27  49 NW21G30   29.73R
QUAD CITIES    CLOUDY    44  27  51 NW20      29.67R
$$

IAZ062-063-075>077-085>089-095>099-112100-
   SOUTHEAST IOWA

CITY           SKY/WX    TMP DP  RH WIND       PRES   REMARKS
BURLINGTON     CLOUDY    46  29  51 NW21G37   29.72R
FAIRFIELD *    CLOUDY    43  30  61 NW20G33   29.77R
FORT MADISON * CLOUDY    46  30  53 W20G39    29.74R
KEOKUK *       CLOUDY    46  30  53 W28G40    29.74R
OSKALOOSA *    LGT RAIN  42  32  69 NW28      29.81R
OTTUMWA        CLOUDY    44  32  62 NW25G35   29.80R
WASHINGTON *   CLOUDY    45  30  57 NW26G37   29.77R
$$

ABBREVIATIONS USED IN REMARKS
   TC - TEMPERATURES IN CELSIUS
  WCI - WIND CHILL INDEX
   HX - HEAT INDEX
  VSB - VISIBILITY
$$





USA.gov is the U.S. government's official web portal to all federal, state and local government web resources and services.